This is the latest recevied weather packets stored in our database for station/object F6BIJ-13. If no packets are shown the sender has not sent any weather packets the latest 10 day(s).
| Time | Temp. | Humidity | Pressure | Rain* | Wind** | Luminosity | Snow |
|---|---|---|---|---|---|---|---|
| 1777781557 | 12.22° C | 76% | 1017.6 hPa | 0 mm | - | - | - |
| 1777781197 | 12.22° C | 74% | 1017.7 hPa | 0 mm | - | - | - |
| 1777780837 | 12.78° C | 75% | 1017.8 hPa | 0 mm | - | - | - |
| 1777780476 | 12.78° C | 73% | 1017.7 hPa | 0 mm | - | - | - |
| 1777780117 | 12.78° C | 73% | 1017.7 hPa | 0 mm | - | - | - |
| 1777779757 | 12.22° C | 74% | 1017.8 hPa | 0 mm | - | - | - |
| 1777779397 | 12.78° C | 74% | 1017.9 hPa | 0 mm | - | - | - |
| 1777779037 | 12.78° C | 76% | 1017.9 hPa | 0 mm | - | - | - |
| 1777778677 | 13.33° C | 75% | 1018.1 hPa | 0 mm | - | - | - |
| 1777778317 | 12.22° C | 76% | 1018.1 hPa | 0 mm | - | - | - |
| 1777777957 | 13.33° C | 72% | 1018.2 hPa | 0 mm | - | - | - |
| 1777777597 | 12.22° C | 72% | 1018.2 hPa | 0 mm | - | - | - |
| 1777777237 | 12.78° C | 72% | 1018.2 hPa | 0 mm | - | - | - |
| 1777776877 | 13.33° C | 72% | 1018.2 hPa | 0 mm | - | - | - |
| 1777776518 | 13.33° C | 72% | 1018.2 hPa | 0 mm | - | - | - |
| 1777776157 | 12.78° C | 71% | 1018.2 hPa | 0 mm | - | - | - |
| 1777775797 | 13.33° C | 71% | 1018.2 hPa | 0 mm | - | - | - |
| 1777775437 | 13.89° C | 70% | 1018.3 hPa | 0 mm | - | - | - |
| 1777775076 | 12.78° C | 67% | 1018.4 hPa | 0 mm | - | - | - |
| 1777774717 | 13.33° C | 65% | 1018.4 hPa | 0 mm | - | - | - |
| 1777774356 | 13.33° C | 70% | 1018.5 hPa | 0 mm | - | - | - |
| 1777773997 | 13.33° C | 70% | 1018.4 hPa | 0 mm | - | - | - |
| 1777773277 | 12.78° C | 73% | 1018.5 hPa | 0 mm | - | - | - |
| 1777771117 | 13.33° C | 73% | 1018.4 hPa | 0 mm | - | - | - |
| 1777770757 | 13.33° C | 71% | 1018.4 hPa | 0 mm | - | - | - |
* Rain latest 24 hours (hover to see other rain measurements)
** Current wind speed in m/s (hover to see current wind gust speed)